Starlink 5525

operational
NORAD ID: 57218 Int'l Des: 2023-094 Owner: SPXS Country: US Constellation: starlink
LEOCIRCULAR

Starlink 5525について

説明を読み込み中...

リアルタイム位置

3D地球を読み込み中...

次回通過

高度履歴

Altitude vs Time

uPlot chart will show altitude changes over time

軌道要素

1 57218U 23094A 25350.64773207 -.00000214 00000-0 -77405-6 0 9990
2 57218 43.0024 121.9579 0001323 268.2513 91.8178 15.02537545134625
Epoch: Dec 16, 2025 • Age: 20 hours

現在のステータス

高度 562.2 km
速度 7.58 km/s
衛星直下点 -16.91°S, 55.99°E
打ち上げ日 Jul 7, 2023
運用期間 2.4 years
タイプ internet

技術仕様

分類 Payload
質量 305.00 kg
乾燥質量 290.00 kg
総質量 305.00 kg
長さ 0.20 m
直径 2.80 m
スパン 9.00 m
形状 Box + pan
製造者 SPXS
バスタイプ Starlink
フェーズステータス In Orbit
所有者/国 SPXS/US

大規模コンステレーション

Loading constellations...